Location: Unspecified
(0.0000°N, 0.0000°E)
Time: 21:55:56
(UTC+02:00)

Cosmos 1536 - Visible Passes

Search period start: 27 May 2015 00:00
Search period end: 06 June 2015 00:00
Orbit: 545 x 565 km, 82.5° (Epoch: 26 May)

Date Brightness Start Highest point End Pass type
(mag) Time Alt. Az. Time Alt. Az. Time Alt. Az.
27 May 5.7 07:26:45 10° SE 07:29:45 21° E 07:32:51 10° NE visible
27 May 6.2 21:03:29 10° W 21:04:41 11° W 21:05:34 10° WSW visible
28 May 5.4 07:23:42 10° SSE 07:26:59 24° E 07:30:19 10° NE visible
29 May 5.0 07:20:42 10° SSE 07:24:12 29° E 07:27:44 10° NNE visible
30 May 4.7 07:17:44 10° SSE 07:21:25 34° E 07:25:06 10° NNE visible
31 May 4.3 07:14:49 10° SSE 07:18:38 41° E 07:22:26 10° NNE visible
01 Jun 3.8 07:11:55 10° S 07:15:50 49° E 07:19:44 10° NNE visible
02 Jun 3.4 07:09:03 10° S 07:13:03 60° E 07:16:59 10° NNE visible
03 Jun 3.1 07:06:12 10° S 07:10:14 74° E 07:14:14 10° N visible
04 Jun 2.8 07:03:24 10° S 07:07:26 89° ESE 07:11:27 10° N visible
05 Jun 2.7 07:00:36 10° S 07:04:38 76° W 07:08:37 10° N visible
